ETR2646 SVMI-SVMG

Flight info

Callsign ETR2646
Flight time 0h 31m
Altitude 21000
Route OSMAR2 OSMAR W19 DOSRA UW19 CHALO EKONU
Aircraft A319/M-SDE3FGHIRWY/LB1

Departure

Time 2026-04-26 22:38
Airport Maiquetía Simón Bolívar International Airport (SVMI)

Arrival

Time 2026-04-26 23:09
Airport Del Caribe Santiago Mariño International Airport (SVMG)
Time Latitude Longitude Altitude Speed Heading
2026-04-26 22:26 10.59973 -67.00240 304 ft 0 kts 178°
2026-04-26 22:33 10.59972 -67.00240 305 ft 0 kts 178°
2026-04-26 22:34 10.59957 -67.00239 306 ft 3 kts 178°
2026-04-26 22:34 10.59923 -67.00224 306 ft 6 kts 138°
2026-04-26 22:34 10.59904 -67.00169 306 ft 10 kts 92°
2026-04-26 22:34 10.59905 -67.00088 306 ft 12 kts 88°
2026-04-26 22:35 10.59912 -66.99989 306 ft 15 kts 82°
2026-04-26 22:35 10.59983 -66.99921 306 ft 16 kts 358°
2026-04-26 22:35 10.60104 -66.99915 306 ft 18 kts 25°
2026-04-26 22:35 10.60136 -66.99824 306 ft 13 kts 91°
2026-04-26 22:36 10.60138 -66.99719 306 ft 15 kts 96°
2026-04-26 22:36 10.60050 -66.99670 306 ft 17 kts 179°
2026-04-26 22:36 10.59932 -66.99667 305 ft 13 kts 165°
2026-04-26 22:36 10.59917 -66.99575 304 ft 19 kts 75°
2026-04-26 22:37 10.60015 -66.99194 303 ft 90 kts 76°
2026-04-26 22:37 10.60216 -66.98366 301 ft 149 kts 76°
2026-04-26 22:37 10.60492 -66.97203 442 ft 184 kts 74°
2026-04-26 22:37 10.60826 -66.95863 811 ft 204 kts 73°
2026-04-26 22:38 10.61554 -66.94591 1319 ft 221 kts 40°
2026-04-26 22:38 10.62898 -66.93726 1921 ft 236 kts 33°
2026-04-26 22:38 10.64094 -66.92577 2623 ft 240 kts 61°
2026-04-26 22:38 10.64578 -66.90978 3354 ft 241 kts 84°
2026-04-26 22:39 10.64729 -66.89288 4076 ft 244 kts 85°
2026-04-26 22:39 10.64931 -66.87575 4799 ft 248 kts 83°
2026-04-26 22:39 10.65228 -66.85841 5517 ft 253 kts 80°
2026-04-26 22:39 10.65602 -66.84077 6246 ft 257 kts 78°
2026-04-26 22:40 10.66021 -66.82322 6962 ft 261 kts 77°
2026-04-26 22:40 10.66472 -66.80534 7679 ft 265 kts 77°
2026-04-26 22:40 10.66953 -66.78700 8409 ft 269 kts 76°
2026-04-26 22:40 10.67442 -66.76872 9125 ft 272 kts 76°
2026-04-26 22:41 10.67944 -66.75014 9840 ft 275 kts 76°
2026-04-26 22:41 10.68468 -66.73083 10579 ft 294 kts 76°
2026-04-26 22:41 10.69020 -66.71048 11392 ft 311 kts 76°
2026-04-26 22:41 10.69613 -66.68870 12249 ft 326 kts 75°
2026-04-26 22:42 10.70221 -66.66647 13195 ft 336 kts 75°
2026-04-26 22:42 10.70856 -66.64329 14146 ft 345 kts 75°
2026-04-26 22:42 10.71501 -66.61970 15085 ft 353 kts 75°
2026-04-26 22:42 10.72157 -66.59566 16019 ft 360 kts 75°
2026-04-26 22:43 10.72830 -66.57099 16949 ft 367 kts 75°
2026-04-26 22:43 10.73525 -66.54575 17671 ft 379 kts 75°
2026-04-26 22:43 10.74262 -66.51964 18376 ft 391 kts 74°
2026-04-26 22:43 10.75030 -66.49253 19083 ft 402 kts 74°
2026-04-26 22:44 10.75812 -66.46494 19639 ft 416 kts 74°
2026-04-26 22:44 10.76625 -66.43620 20054 ft 425 kts 75°
2026-04-26 22:44 10.77432 -66.40765 20450 ft 427 kts 74°
2026-04-26 22:44 10.78265 -66.37818 20597 ft 436 kts 74°
2026-04-26 22:45 10.79110 -66.34820 20715 ft 444 kts 75°
2026-04-26 22:45 10.79969 -66.31767 20833 ft 449 kts 75°
2026-04-26 22:45 10.80821 -66.28732 20891 ft 451 kts 75°
2026-04-26 22:45 10.81689 -66.25642 20908 ft 451 kts 75°
2026-04-26 22:46 10.82548 -66.22590 20915 ft 451 kts 75°
2026-04-26 22:46 10.83407 -66.19532 20911 ft 451 kts 75°
2026-04-26 22:46 10.84271 -66.16451 20909 ft 451 kts 75°
2026-04-26 22:46 10.85132 -66.13394 20908 ft 451 kts 75°
2026-04-26 22:47 10.86002 -66.10311 20906 ft 451 kts 75°
2026-04-26 22:47 10.86874 -66.07217 20906 ft 451 kts 75°
2026-04-26 22:47 10.87736 -66.04154 20904 ft 451 kts 75°
2026-04-26 22:47 10.88582 -66.01102 20902 ft 451 kts 76°
2026-04-26 22:48 10.89252 -65.97974 20905 ft 450 kts 81°
2026-04-26 22:48 10.89665 -65.94808 20904 ft 451 kts 85°
2026-04-26 22:48 10.89823 -65.91648 20903 ft 450 kts 89°
2026-04-26 22:48 10.89856 -65.88452 20903 ft 450 kts 90°
2026-04-26 22:49 10.89870 -65.85281 20905 ft 450 kts 90°
2026-04-26 22:49 10.89883 -65.82069 20906 ft 450 kts 90°
2026-04-26 22:49 10.89897 -65.78888 20906 ft 449 kts 90°
2026-04-26 22:49 10.89913 -65.75752 20907 ft 449 kts 90°
2026-04-26 22:50 10.89931 -65.72560 20908 ft 450 kts 90°
2026-04-26 22:50 10.89950 -65.69373 20909 ft 449 kts 90°
2026-04-26 22:50 10.89970 -65.66184 20911 ft 449 kts 90°
2026-04-26 22:50 10.89990 -65.63041 20917 ft 448 kts 90°
2026-04-26 22:51 10.90009 -65.59875 20922 ft 450 kts 90°
2026-04-26 22:51 10.90030 -65.56716 20927 ft 448 kts 90°
2026-04-26 22:51 10.90049 -65.53533 20927 ft 448 kts 90°
2026-04-26 22:51 10.90068 -65.50351 20924 ft 449 kts 90°
2026-04-26 22:52 10.90086 -65.47205 20923 ft 449 kts 90°
2026-04-26 22:52 10.90104 -65.44047 20713 ft 448 kts 90°
2026-04-26 22:52 10.90122 -65.40871 20434 ft 445 kts 90°
2026-04-26 22:52 10.90139 -65.37715 20047 ft 442 kts 90°
2026-04-26 22:53 10.90157 -65.34599 19677 ft 438 kts 90°
2026-04-26 22:53 10.90174 -65.31507 19307 ft 436 kts 90°
2026-04-26 22:53 10.90191 -65.28477 18939 ft 433 kts 90°
2026-04-26 22:53 10.90208 -65.25423 18567 ft 431 kts 90°
2026-04-26 22:54 10.90224 -65.22360 18160 ft 427 kts 90°
2026-04-26 22:54 10.90240 -65.19377 17745 ft 425 kts 90°
2026-04-26 22:54 10.90254 -65.16370 17322 ft 420 kts 90°
2026-04-26 22:54 10.90268 -65.13412 16903 ft 418 kts 90°
2026-04-26 22:55 10.90283 -65.10477 16486 ft 416 kts 90°
2026-04-26 22:55 10.90299 -65.07571 16069 ft 412 kts 90°
2026-04-26 22:55 10.90313 -65.04663 15645 ft 409 kts 90°
2026-04-26 22:55 10.90328 -65.01783 15221 ft 405 kts 90°
2026-04-26 22:56 10.90342 -64.98929 14797 ft 402 kts 90°
2026-04-26 22:56 10.90355 -64.96114 14377 ft 400 kts 91°
2026-04-26 22:56 10.90369 -64.93295 13952 ft 398 kts 91°
2026-04-26 22:56 10.90382 -64.90500 13527 ft 395 kts 91°
2026-04-26 22:57 10.90394 -64.87718 13101 ft 392 kts 91°
2026-04-26 22:57 10.90407 -64.84961 12675 ft 389 kts 91°
2026-04-26 22:57 10.90418 -64.82226 12245 ft 385 kts 91°
2026-04-26 22:57 10.90430 -64.79540 11817 ft 379 kts 91°
2026-04-26 22:58 10.90442 -64.76860 11384 ft 372 kts 91°
2026-04-26 22:58 10.90454 -64.74265 10959 ft 366 kts 91°
2026-04-26 22:58 10.90465 -64.71707 10537 ft 361 kts 91°
2026-04-26 22:58 10.90474 -64.69180 10106 ft 356 kts 91°
2026-04-26 22:59 10.90484 -64.66672 9670 ft 352 kts 91°
2026-04-26 22:59 10.90486 -64.64230 9246 ft 348 kts 92°
2026-04-26 22:59 10.90400 -64.61787 8816 ft 344 kts 93°
2026-04-26 22:59 10.90288 -64.59360 8374 ft 340 kts 93°
2026-04-26 23:00 10.90178 -64.56967 7941 ft 337 kts 93°
2026-04-26 23:00 10.90070 -64.54617 7619 ft 330 kts 93°
2026-04-26 23:00 10.89966 -64.52292 7356 ft 322 kts 93°
2026-04-26 23:00 10.89870 -64.50071 7122 ft 315 kts 93°
2026-04-26 23:01 10.89773 -64.47851 6880 ft 307 kts 93°
2026-04-26 23:01 10.89680 -64.45708 6647 ft 301 kts 93°
2026-04-26 23:01 10.89590 -64.43624 6407 ft 295 kts 93°
2026-04-26 23:01 10.89499 -64.41550 6160 ft 289 kts 93°
2026-04-26 23:02 10.89410 -64.39529 5904 ft 284 kts 93°
2026-04-26 23:02 10.89322 -64.37524 5617 ft 282 kts 93°
2026-04-26 23:02 10.89237 -64.35562 5334 ft 279 kts 92°
2026-04-26 23:02 10.89151 -64.33596 5040 ft 276 kts 92°
2026-04-26 23:03 10.89066 -64.31637 4749 ft 274 kts 92°
2026-04-26 23:03 10.88982 -64.29712 4460 ft 272 kts 92°
2026-04-26 23:03 10.88900 -64.27830 4231 ft 268 kts 92°
2026-04-26 23:03 10.88818 -64.25934 4010 ft 263 kts 92°
2026-04-26 23:04 10.88738 -64.24103 3785 ft 259 kts 92°
2026-04-26 23:04 10.88659 -64.22285 3568 ft 255 kts 92°
2026-04-26 23:04 10.88582 -64.20503 3358 ft 251 kts 92°
2026-04-26 23:04 10.88503 -64.18751 3140 ft 247 kts 92°
2026-04-26 23:05 10.88425 -64.17018 2923 ft 244 kts 92°
2026-04-26 23:05 10.88350 -64.15303 2704 ft 241 kts 92°
2026-04-26 23:05 10.88237 -64.13606 2487 ft 237 kts 94°
2026-04-26 23:05 10.88240 -64.11938 2318 ft 234 kts 85°
2026-04-26 23:06 10.88457 -64.10349 2178 ft 216 kts 79°
2026-04-26 23:06 10.88744 -64.08947 2225 ft 198 kts 78°
2026-04-26 23:06 10.89032 -64.07597 2002 ft 194 kts 78°
2026-04-26 23:06 10.89309 -64.06265 1740 ft 190 kts 79°
2026-04-26 23:07 10.89570 -64.04983 1475 ft 179 kts 78°
2026-04-26 23:07 10.89734 -64.04176 1310 ft 172 kts 78°
2026-04-26 23:07 10.90048 -64.02634 1001 ft 160 kts 78°
2026-04-26 23:07 10.90266 -64.01562 788 ft 151 kts 78°
2026-04-26 23:08 10.90475 -64.00539 549 ft 146 kts 78°
2026-04-26 23:08 10.90675 -63.99533 261 ft 146 kts 78°
2026-04-26 23:08 10.90879 -63.98522 120 ft 144 kts 77°
2026-04-26 23:08 10.91090 -63.97540 67 ft 134 kts 77°
2026-04-26 23:09 10.91244 -63.96764 61 ft 64 kts 77°
2026-04-26 23:09 10.91299 -63.96506 61 ft 21 kts 65°
2026-04-26 23:09 10.91396 -63.96473 62 ft 12 kts 343°
2026-04-26 23:09 10.91463 -63.96489 62 ft 7 kts 348°
2026-04-26 23:10 10.91492 -63.96495 62 ft 1 kts 348°
2026-04-26 23:10 10.91491 -63.96494 62 ft 0 kts 348°
2026-04-26 23:10 10.91552 -63.96520 62 ft 14 kts 306°
2026-04-26 23:10 10.91553 -63.96625 62 ft 15 kts 260°
2026-04-26 23:11 10.91557 -63.96726 62 ft 12 kts 314°
2026-04-26 23:11 10.91605 -63.96743 62 ft 0 kts 350°